SCP
-0 -0 -0 -0 -0 0 0 0 -0 -0 -0 -0 -0 -0 -0 -0 -0 -0 -0 0 -0 -0 0 0 -0 0 0 0 0 -0 0 0 0 0 -0 0 0 0 0 0 0 0 0 -0 -0
-0 -0 -0 -0 -0 -0 -0 0 0 0 -0 -0 -0 -0 -0 -0 -0 0 0 0 -0 -0 0 0 -0 -0 -0 0 -0 -0 0 0 -0 0 0 0 0 0 0 0 0 -0 0 -0 -0
-0 -0 -0 -0 -0 -0 -0 -0 -0 0 0 -0 -0 -0 -0 -0 -0 -0 0 0 0 0 0 0 0 -0 -0 0 -0 -0 0 0 -0 -0 -0 -0 0 0 0 0 0 -0 -0 -0 -0
-0 -0 -0 -0 -0 -0 -0 -0 -0 -0 0 0 0 0 0 -0 -0 0 0 0 0 0 0 0 0 0 -0 -0 0 -0 -0 0 -0 -0 -0 -0 0 0 -0 0 0 -0 -0 -0 -0
-0 -0 -0 -0 -0 -0 -0 -0 -0 -0 -0 -0 0 0 -0 -0 0 0 -0 0 0 -0 0 0 -0 0 -0 -0 0 -0 -0 -0 -0 -0 -0 -0 -0 -0 -0 -0 -0 -0 -1 -0 -0
-0 -0 -0 -0 -0 -0 -0 -0 -0 -0 -0 -0 -0 0 0 0 0 0 0 -0 0 0 0 0 0 0 0 0 0 0 0 0 0 0 -0 -0 0 0 0 0 -0 -0 -0 -0 -0
-0 -0 -0 -0 -0 -0 -0 -0 -0 -0 -0 -0 0 0 0 0 0 0 0 0 0 -0 -0 0 0 0 0 0 0 0 0 0 0 0 0 -0 0 0 -0 0 0 -0 -0 -0 -0
-0 -0 -0 -0 -0 -0 -0 -0 -0 -0 0 0 0 0 0 0 0 0 0 0 0 0 0 0 0 0 0 0 0 0 0 -0 -0 0 0 -0 0 0 -0 -0 -0 -0 0 -0 -0
-0 -0 -0 -0 -0 -0 -0 -0 0 0 0 0 0 0 0 0 0 0 0 0 0 0 0 0 0 0 0 0 0 0 -0 -0 -0 -0 0 0 0 -0 -0 -0 -0 -0 -0 0 0
0 0 0 0 -0 -0 -0 0 0 0 0 0 0 0 -0 0 0 0 0 0 0 0 0 0 0 0 0 -0 -0 -0 0 -0 -0 -0 -0 0 0 -0 -0 -0 -0 -0 -0 -0 -0
0 0 0 0 -0 0 0 0 0 0 0 0 0 0 0 0 0 0 0 0 0 0 0 0 0 -0 -0 0 0 0 0 0 0 -0 0 0 0 0 -0 -0 -0 -0 -0 -0 -0
0 0 0 0 0 0 0 0 0 0 -0 0 0 0 0 0 0 0 0 0 0 0 0 0 -0 0 0 0 0 0 0 0 0 0 -0 -0 0 0 -0 -0 -0 -0 -0 -0 -0
0 0 0 0 0 0 0 0 0 0 0 -0 0 0 0 0 0 0 0 0 0 0 0 0 0 0 0 0 0 0 -0 -0 0 0 0 0 0 0 -0 -0 -0 -0 -0 -0 -0
0 0 0 0 0 0 0 0 0 0 0 0 0 0 0 0 0 0 0 0 0 0 0 0 0 0 0 0 0 0 0 0 0 0 0 0 0 0 0 -0 -0 -0 -0 -0 -0
0 0 0 0 0 0 0 0 0 0 0 0 0 0 0 0 0 0 0 0 0 0 0 0 0 0 0 0 0 0 0 0 0 0 0 0 0 0 0 0 -0 -0 -0 -0 -0
0 0 0 -0 0 0 0 0 0 0 0 0 0 0 0 0 0 0 0 0 0 0 0 0 0 0 0 0 0 0 0 0 0 0 0 -0 0 0 0 -0 -0 -0 -0 -0 -0
0 0 0 0 0 0 0 0 0 0 0 0 0 0 0 0 0 0 0 0 0 0 0 0 0 0 0 0 0 0 0 0 0 0 0 0 0 -0 -0 -0 -0 0 -0 -0 -0
0 0 0 0 0 0 0 0 0 0 0 0 0 0 0 0 0 0 0 0 0 0 0 0 0 0 0 0 0 0 0 0 0 0 0 0 0 0 -0 0 0 0 0 -0 -0
0 0 0 0 0 0 0 0 0 0 0 0 0 0 0 0 0 0 0 0 0 0 0 0 0 0 0 0 0 0 0 0 0 0 0 0 0 0 0 0 0 -0 0 -0 -0
0 0 0 0 0 0 0 0 0 0 0 0 0 0 0 0 0 0 0 0 0 0 0 0 0 0 0 0 0 0 0 0 0 0 0 0 0 0 0 0 -0 0 0 -0 -0
0 0 0 0 0 0 0 0 0 0 0 0 0 0 0 0 0 0 0 0 0 0 0 0 0 0 0 0 0 0 0 0 0 0 0 0 0 0 0 0 0 -0 0 0 0
0 0 0 0 0 0 0 0 0 0 0 0 0 0 0 0 0 0 0 0 0 0 0 0 0 0 0 0 0 0 0 0 0 0 0 0 0 0 -0 -0 0 0 0 0 0
0 0 0 0 0 0 0 0 0 0 0 0 0 0 0 0 0 0 0 0 0 0 0 0 0 0 0 0 0 0 0 0 0 0 0 0 0 0 0 0 0 0 0 0 0
0 0 0 0 0 0 0 0 0 0 0 0 0 0 0 0 0 0 0 0 0 0 0 0 0 0 0 0 0 0 0 0 0 0 0 0 0 0 0 0 0 0 0 0 0
0 0 0 0 0 0 0 0 0 0 0 0 0 0 0 0 0 0 0 0 0 0 0 0 0 0 0 0 0 0 0 0 0 0 0 0 0 0 0 0 -0 0 0 0 0
0 0 0 0 0 0 0 0 0 0 0 0 0 0 0 0 0 0 0 0 0 0 0 0 0 0 0 0 0 0 0 0 0 0 0 0 0 0 0 0 0 0 0 0 0
0 0 0 0 0 0 0 0 0 0 0 0 0 0 0 0 0 0 0 0 0 0 0 0 0 0 0 0 0 0 0 0 0 0 0 0 0 0 0 0 0 0 0 0 0
Wind_Speed_500mb
34 36 35 32 31 32 35 37 36 37 36 35 36 38 38 38 38 42 45 35 15 29 25 25 24 23 30 16 14 8 4 11 14 17 11 27 14 16 12 30 10 13 22 32 51
36 36 37 37 36 33 31 33 37 36 38 37 37 39 40 42 47 46 35 34 26 31 40 40 33 32 17 13 13 11 7 21 19 20 18 28 23 23 10 35 13 13 29 52 55
34 36 36 39 41 40 37 34 35 38 37 38 37 40 40 39 46 1 4 8 23 39 32 47 26 31 21 14 14 8 6 12 20 29 36 32 24 20 21 26 25 29 50 60 52
34 35 37 38 40 41 43 40 35 37 39 36 37 37 39 34 13 4 18 19 15 34 42 34 39 23 15 17 17 10 8 16 22 35 39 39 30 19 35 6 27 41 59 55 51
40 39 38 40 42 41 41 41 41 38 38 39 35 37 37 20 43 37 25 24 24 21 54 45 39 24 21 16 12 8 9 13 11 36 38 40 34 17 33 4 30 49 58 55 51
44 44 44 43 41 42 43 43 42 42 39 37 36 35 30 21 22 14 21 18 17 25 54 50 28 25 17 10 16 11 12 17 20 34 41 37 24 24 26 25 39 55 56 51 49
45 48 49 49 48 45 42 44 46 41 42 37 35 35 34 57 43 48 37 37 17 26 55 54 20 20 16 14 14 27 18 20 24 34 17 36 17 27 33 35 44 51 50 49 48
44 44 46 50 53 53 46 43 45 44 39 36 31 27 23 32 29 27 24 16 15 24 45 44 22 17 3 21 13 9 13 14 16 28 22 35 27 26 40 47 48 49 49 49 47
53 53 51 45 49 52 48 45 41 41 35 28 18 12 19 13 5 9 12 16 18 28 33 34 24 6 9 19 13 7 13 20 20 25 17 27 12 29 44 47 48 53 53 49 46
48 53 56 51 49 49 45 37 36 28 20 15 15 9 21 9 13 13 13 15 18 37 17 12 9 12 8 20 27 24 15 16 17 26 18 27 17 13 39 47 49 53 53 53 52
46 49 51 49 53 46 32 24 12 8 10 17 10 17 12 10 18 12 13 30 26 19 18 10 18 31 35 31 24 29 29 32 17 20 22 28 24 14 35 43 47 50 53 55 57
50 53 55 44 47 34 27 10 7 9 24 41 52 64 60 38 13 28 18 17 17 18 14 11 30 28 28 26 19 29 30 28 15 23 23 22 27 20 35 53 55 54 55 57 56
51 52 58 48 45 15 23 11 8 22 9 28 29 26 21 43 34 40 28 23 22 21 26 26 17 21 25 24 25 25 35 27 28 24 8 12 30 30 27 44 48 57 58 56 59
52 49 59 54 17 36 5 4 29 23 7 11 9 9 13 16 15 57 44 27 9 31 24 20 18 34 26 37 30 34 29 32 33 25 26 23 22 21 31 35 43 58 61 64 61
54 47 53 50 45 28 14 19 20 4 11 3 6 5 13 17 3 20 51 32 25 19 14 19 23 28 43 40 30 23 24 35 35 35 19 17 15 28 15 32 46 62 71 72 67
55 50 54 51 42 19 1 13 2 5 16 5 4 10 7 15 5 12 28 29 29 23 9 29 8 29 30 35 36 19 24 12 9 19 19 34 29 26 18 30 44 54 69 72 70
57 53 48 52 35 29 20 4 7 12 2 8 9 7 15 9 12 16 31 33 27 33 30 24 29 15 22 37 31 29 31 14 16 14 17 24 24 35 23 38 45 40 68 81 77
61 57 51 37 30 28 17 8 21 10 24 2 2 13 10 4 10 25 29 38 37 35 26 31 28 34 28 35 29 41 40 22 33 19 21 8 21 27 34 58 35 41 40 55 72
60 57 39 24 18 22 23 21 17 17 9 9 15 21 15 6 9 21 24 39 43 43 30 30 34 9 23 18 36 29 25 34 17 3 15 14 13 20 27 30 37 54 42 53 66
63 55 12 18 15 30 12 27 15 15 8 8 17 10 8 6 5 15 18 15 28 43 42 19 14 29 34 28 19 32 30 21 15 33 30 16 10 14 12 25 33 31 45 57 65
47 26 14 5 21 15 12 15 19 28 19 17 23 23 16 8 6 5 5 4 15 36 41 31 24 11 16 37 43 15 17 9 15 19 30 30 26 16 25 26 24 31 47 55 56
22 8 7 18 8 6 8 9 7 11 33 26 9 28 27 16 16 11 15 10 3 19 26 28 26 28 30 15 17 49 40 36 21 23 12 21 28 10 29 27 25 35 40 32 41
25 16 16 22 8 9 8 11 12 19 16 18 31 24 19 29 16 21 24 24 34 10 15 19 18 22 29 31 18 17 34 42 38 29 35 30 24 7 11 19 37 43 41 34 30
11 8 6 15 8 7 8 12 11 14 25 31 14 14 16 17 20 8 13 11 14 26 21 20 11 23 32 40 31 32 24 33 39 30 31 34 36 20 21 24 32 44 46 40 34
7 7 5 7 4 15 7 10 20 11 8 6 18 37 27 27 33 39 30 32 31 22 10 14 20 32 41 43 46 47 44 42 38 45 39 37 36 33 30 34 41 52 34 33 36
9 7 12 16 24 18 12 9 16 9 7 16 14 7 23 29 30 24 35 30 29 2 23 15 10 16 30 50 47 54 53 47 46 49 40 44 32 25 34 32 32 43 36 38 45
9 12 10 15 8 9 8 8 6 17 15 28 21 20 20 21 19 22 36 36 21 12 18 14 11 9 14 34 41 44 50 48 41 42 42 40 29 22 24 31 41 47 53 59 61
Wind_Direction_500mb
329 328 325 323 321 322 321 320 321 322 323 324 322 320 317 315 310 298 284 283 257 218 202 178 176 170 171 200 203 192 193 172 170 177 143 155 150 144 150 147 164 171 153 164 160
328 327 325 321 318 315 315 314 315 316 317 320 320 318 318 318 315 302 284 265 227 214 210 198 177 175 188 200 179 212 216 190 184 168 153 167 165 151 153 160 157 121 141 160 160
328 326 324 323 321 317 314 313 312 311 310 313 317 315 316 321 321 262 91 29 218 204 213 215 199 187 208 178 184 176 243 166 187 174 158 165 169 159 162 187 187 168 157 160 165
327 325 322 319 319 319 318 314 310 306 305 305 308 311 311 314 288 151 300 289 295 214 195 193 182 184 204 192 180 209 188 166 169 171 162 162 168 177 176 191 192 172 163 163 171
327 325 323 322 320 318 316 314 310 303 300 300 301 303 306 288 267 293 286 281 259 232 200 194 184 185 196 191 159 220 182 185 181 176 173 157 170 171 189 117 158 164 166 173 179
328 325 324 322 320 318 315 312 307 304 298 296 296 294 290 261 292 287 302 316 236 219 203 191 201 197 181 162 199 160 126 115 145 154 159 164 165 162 194 151 148 165 173 178 185
328 326 324 323 321 317 316 313 306 303 298 295 291 286 269 267 280 278 277 272 261 221 197 192 209 192 163 141 132 141 120 108 139 153 152 161 161 209 181 165 161 173 179 184 191
326 323 320 323 322 319 320 315 308 302 297 292 286 274 255 283 277 277 258 259 229 203 198 184 171 177 141 126 104 137 152 170 170 171 155 187 216 196 176 172 177 183 187 191 194
330 327 324 325 320 318 324 318 310 301 294 287 282 251 263 266 244 32 206 208 176 162 180 200 203 173 156 153 139 185 187 198 168 193 156 201 222 197 183 186 186 189 192 196 198
329 326 323 328 324 323 329 321 311 298 285 280 257 257 239 190 150 350 162 169 145 169 163 156 153 186 163 188 201 185 202 197 183 183 190 202 225 157 193 192 196 198 199 200 203
333 325 321 328 325 332 335 335 325 311 296 242 255 245 225 217 268 151 111 166 142 148 173 177 196 199 194 196 214 192 207 193 173 171 190 221 252 223 198 207 205 205 205 208 211
336 332 324 327 325 338 347 329 64 338 304 282 264 255 251 251 256 209 224 180 168 177 134 173 215 203 199 203 199 202 212 204 153 163 198 212 244 242 205 216 210 207 211 213 217
333 332 326 329 332 7 346 125 46 342 264 289 257 247 244 221 224 228 178 177 180 170 186 208 208 195 200 201 197 212 208 191 196 180 165 195 246 240 220 221 218 220 220 220 220
329 333 326 329 339 340 65 297 327 332 291 265 244 235 184 187 216 221 196 170 173 195 170 213 205 193 198 212 202 208 214 203 185 176 227 199 260 230 223 214 219 223 220 222 221
323 329 323 324 321 323 289 301 323 103 303 130 188 225 195 184 154 195 192 195 189 169 181 193 190 192 201 207 201 224 182 196 195 198 209 217 241 258 201 220 221 222 223 222 221
320 324 319 316 314 307 244 325 93 195 244 267 192 189 174 220 213 119 169 189 187 180 205 211 199 196 200 204 198 148 126 97 150 202 220 220 214 251 211 220 228 223 223 224 220
317 318 315 304 295 281 273 243 195 224 355 209 192 181 330 198 211 184 177 181 176 186 199 203 218 215 195 199 199 196 172 171 195 200 225 228 217 244 245 234 235 233 221 219 216
319 318 315 296 282 256 202 183 219 205 218 352 200 289 279 221 221 190 183 191 195 186 188 204 219 209 199 206 189 198 198 202 206 206 215 183 220 236 238 250 252 249 239 226 220
322 319 316 289 262 222 175 216 214 200 201 228 266 270 265 221 241 195 202 208 194 192 196 200 223 205 205 192 179 181 209 214 222 23 224 197 243 276 250 250 246 243 231 221 218
329 324 302 293 251 180 207 232 220 212 203 202 222 206 226 203 243 201 192 189 200 201 195 183 208 208 200 195 190 204 180 192 214 219 230 208 234 232 221 245 242 240 226 231 225
330 317 322 317 151 180 221 232 236 239 228 223 231 236 237 220 227 254 224 242 202 193 201 191 215 161 177 207 200 173 185 210 231 230 231 235 235 213 233 245 247 243 235 237 224
337 297 297 163 220 208 239 209 255 244 229 236 242 237 229 217 243 255 244 253 198 144 187 202 207 220 216 208 236 222 215 208 215 197 224 250 228 188 231 239 242 252 255 254 229
320 282 251 224 243 227 278 276 263 252 224 202 222 230 225 244 247 239 237 248 245 251 181 165 211 215 231 240 206 225 226 223 229 243 216 228 225 201 231 242 249 252 261 267 240
313 308 281 207 271 285 334 276 263 285 253 242 233 212 218 227 232 241 215 256 249 228 217 173 180 216 224 230 233 227 227 217 220 225 225 229 238 211 237 245 258 247 256 253 235
248 262 325 308 199 324 290 291 288 282 287 250 222 235 223 234 235 236 242 266 282 268 250 207 214 215 227 229 217 223 229 219 218 234 231 229 220 222 225 236 237 244 256 235 218
279 309 325 287 293 289 262 241 256 298 291 276 240 236 246 233 238 246 227 232 239 254 213 195 224 219 242 231 224 221 221 226 223 227 230 237 223 217 232 238 243 248 236 231 222
252 282 286 272 288 281 259 294 290 347 272 254 312 326 287 273 278 268 273 268 271 260 199 192 197 177 243 232 218 231 223 220 227 224 211 219 223 215 228 229 230 235 239 239 234
Wind_Speed_850mb
34 36 35 32 31 32 35 37 36 37 36 35 36 38 38 38 38 42 45 35 15 29 25 25 24 23 30 16 14 8 4 11 14 17 11 27 14 16 12 30 10 13 22 32 51
36 36 37 37 36 33 31 33 37 36 38 37 37 39 40 42 47 46 35 34 26 31 40 40 33 32 17 13 13 11 7 21 19 20 18 28 23 23 10 35 13 13 29 52 55
34 36 36 39 41 40 37 34 35 38 37 38 37 40 40 39 46 1 4 8 23 39 32 47 26 31 21 14 14 8 6 12 20 29 36 32 24 20 21 26 25 29 50 60 52
34 35 37 38 40 41 43 40 35 37 39 36 37 37 39 34 13 4 18 19 15 34 42 34 39 23 15 17 17 10 8 16 22 35 39 39 30 19 35 6 27 41 59 55 51
40 39 38 40 42 41 41 41 41 38 38 39 35 37 37 20 43 37 25 24 24 21 54 45 39 24 21 16 12 8 9 13 11 36 38 40 34 17 33 4 30 49 58 55 51
44 44 44 43 41 42 43 43 42 42 39 37 36 35 30 21 22 14 21 18 17 25 54 50 28 25 17 10 16 11 12 17 20 34 41 37 24 24 26 25 39 55 56 51 49
45 48 49 49 48 45 42 44 46 41 42 37 35 35 34 57 43 48 37 37 17 26 55 54 20 20 16 14 14 27 18 20 24 34 17 36 17 27 33 35 44 51 50 49 48
44 44 46 50 53 53 46 43 45 44 39 36 31 27 23 32 29 27 24 16 15 24 45 44 22 17 3 21 13 9 13 14 16 28 22 35 27 26 40 47 48 49 49 49 47
53 53 51 45 49 52 48 45 41 41 35 28 18 12 19 13 5 9 12 16 18 28 33 34 24 6 9 19 13 7 13 20 20 25 17 27 12 29 44 47 48 53 53 49 46
48 53 56 51 49 49 45 37 36 28 20 15 15 9 21 9 13 13 13 15 18 37 17 12 9 12 8 20 27 24 15 16 17 26 18 27 17 13 39 47 49 53 53 53 52
46 49 51 49 53 46 32 24 12 8 10 17 10 17 12 10 18 12 13 30 26 19 18 10 18 31 35 31 24 29 29 32 17 20 22 28 24 14 35 43 47 50 53 55 57
50 53 55 44 47 34 27 10 7 9 24 41 52 64 60 38 13 28 18 17 17 18 14 11 30 28 28 26 19 29 30 28 15 23 23 22 27 20 35 53 55 54 55 57 56
51 52 58 48 45 15 23 11 8 22 9 28 29 26 21 43 34 40 28 23 22 21 26 26 17 21 25 24 25 25 35 27 28 24 8 12 30 30 27 44 48 57 58 56 59
52 49 59 54 17 36 5 4 29 23 7 11 9 9 13 16 15 57 44 27 9 31 24 20 18 34 26 37 30 34 29 32 33 25 26 23 22 21 31 35 43 58 61 64 61
54 47 53 50 45 28 14 19 20 4 11 3 6 5 13 17 3 20 51 32 25 19 14 19 23 28 43 40 30 23 24 35 35 35 19 17 15 28 15 32 46 62 71 72 67
55 50 54 51 42 19 1 13 2 5 16 5 4 10 7 15 5 12 28 29 29 23 9 29 8 29 30 35 36 19 24 12 9 19 19 34 29 26 18 30 44 54 69 72 70
57 53 48 52 35 29 20 4 7 12 2 8 9 7 15 9 12 16 31 33 27 33 30 24 29 15 22 37 31 29 31 14 16 14 17 24 24 35 23 38 45 40 68 81 77
61 57 51 37 30 28 17 8 21 10 24 2 2 13 10 4 10 25 29 38 37 35 26 31 28 34 28 35 29 41 40 22 33 19 21 8 21 27 34 58 35 41 40 55 72
60 57 39 24 18 22 23 21 17 17 9 9 15 21 15 6 9 21 24 39 43 43 30 30 34 9 23 18 36 29 25 34 17 3 15 14 13 20 27 30 37 54 42 53 66
63 55 12 18 15 30 12 27 15 15 8 8 17 10 8 6 5 15 18 15 28 43 42 19 14 29 34 28 19 32 30 21 15 33 30 16 10 14 12 25 33 31 45 57 65
47 26 14 5 21 15 12 15 19 28 19 17 23 23 16 8 6 5 5 4 15 36 41 31 24 11 16 37 43 15 17 9 15 19 30 30 26 16 25 26 24 31 47 55 56
22 8 7 18 8 6 8 9 7 11 33 26 9 28 27 16 16 11 15 10 3 19 26 28 26 28 30 15 17 49 40 36 21 23 12 21 28 10 29 27 25 35 40 32 41
25 16 16 22 8 9 8 11 12 19 16 18 31 24 19 29 16 21 24 24 34 10 15 19 18 22 29 31 18 17 34 42 38 29 35 30 24 7 11 19 37 43 41 34 30
11 8 6 15 8 7 8 12 11 14 25 31 14 14 16 17 20 8 13 11 14 26 21 20 11 23 32 40 31 32 24 33 39 30 31 34 36 20 21 24 32 44 46 40 34
7 7 5 7 4 15 7 10 20 11 8 6 18 37 27 27 33 39 30 32 31 22 10 14 20 32 41 43 46 47 44 42 38 45 39 37 36 33 30 34 41 52 34 33 36
9 7 12 16 24 18 12 9 16 9 7 16 14 7 23 29 30 24 35 30 29 2 23 15 10 16 30 50 47 54 53 47 46 49 40 44 32 25 34 32 32 43 36 38 45
9 12 10 15 8 9 8 8 6 17 15 28 21 20 20 21 19 22 36 36 21 12 18 14 11 9 14 34 41 44 50 48 41 42 42 40 29 22 24 31 41 47 53 59 61
Wind_Direction_850mb
329 328 325 323 321 322 321 320 321 322 323 324 322 320 317 315 310 298 284 283 257 218 202 178 176 170 171 200 203 192 193 172 170 177 143 155 150 144 150 147 164 171 153 164 160
328 327 325 321 318 315 315 314 315 316 317 320 320 318 318 318 315 302 284 265 227 214 210 198 177 175 188 200 179 212 216 190 184 168 153 167 165 151 153 160 157 121 141 160 160
328 326 324 323 321 317 314 313 312 311 310 313 317 315 316 321 321 262 91 29 218 204 213 215 199 187 208 178 184 176 243 166 187 174 158 165 169 159 162 187 187 168 157 160 165
327 325 322 319 319 319 318 314 310 306 305 305 308 311 311 314 288 151 300 289 295 214 195 193 182 184 204 192 180 209 188 166 169 171 162 162 168 177 176 191 192 172 163 163 171
327 325 323 322 320 318 316 314 310 303 300 300 301 303 306 288 267 293 286 281 259 232 200 194 184 185 196 191 159 220 182 185 181 176 173 157 170 171 189 117 158 164 166 173 179
328 325 324 322 320 318 315 312 307 304 298 296 296 294 290 261 292 287 302 316 236 219 203 191 201 197 181 162 199 160 126 115 145 154 159 164 165 162 194 151 148 165 173 178 185
328 326 324 323 321 317 316 313 306 303 298 295 291 286 269 267 280 278 277 272 261 221 197 192 209 192 163 141 132 141 120 108 139 153 152 161 161 209 181 165 161 173 179 184 191
326 323 320 323 322 319 320 315 308 302 297 292 286 274 255 283 277 277 258 259 229 203 198 184 171 177 141 126 104 137 152 170 170 171 155 187 216 196 176 172 177 183 187 191 194
330 327 324 325 320 318 324 318 310 301 294 287 282 251 263 266 244 32 206 208 176 162 180 200 203 173 156 153 139 185 187 198 168 193 156 201 222 197 183 186 186 189 192 196 198
329 326 323 328 324 323 329 321 311 298 285 280 257 257 239 190 150 350 162 169 145 169 163 156 153 186 163 188 201 185 202 197 183 183 190 202 225 157 193 192 196 198 199 200 203
333 325 321 328 325 332 335 335 325 311 296 242 255 245 225 217 268 151 111 166 142 148 173 177 196 199 194 196 214 192 207 193 173 171 190 221 252 223 198 207 205 205 205 208 211
336 332 324 327 325 338 347 329 64 338 304 282 264 255 251 251 256 209 224 180 168 177 134 173 215 203 199 203 199 202 212 204 153 163 198 212 244 242 205 216 210 207 211 213 217
333 332 326 329 332 7 346 125 46 342 264 289 257 247 244 221 224 228 178 177 180 170 186 208 208 195 200 201 197 212 208 191 196 180 165 195 246 240 220 221 218 220 220 220 220
329 333 326 329 339 340 65 297 327 332 291 265 244 235 184 187 216 221 196 170 173 195 170 213 205 193 198 212 202 208 214 203 185 176 227 199 260 230 223 214 219 223 220 222 221
323 329 323 324 321 323 289 301 323 103 303 130 188 225 195 184 154 195 192 195 189 169 181 193 190 192 201 207 201 224 182 196 195 198 209 217 241 258 201 220 221 222 223 222 221
320 324 319 316 314 307 244 325 93 195 244 267 192 189 174 220 213 119 169 189 187 180 205 211 199 196 200 204 198 148 126 97 150 202 220 220 214 251 211 220 228 223 223 224 220
317 318 315 304 295 281 273 243 195 224 355 209 192 181 330 198 211 184 177 181 176 186 199 203 218 215 195 199 199 196 172 171 195 200 225 228 217 244 245 234 235 233 221 219 216
319 318 315 296 282 256 202 183 219 205 218 352 200 289 279 221 221 190 183 191 195 186 188 204 219 209 199 206 189 198 198 202 206 206 215 183 220 236 238 250 252 249 239 226 220
322 319 316 289 262 222 175 216 214 200 201 228 266 270 265 221 241 195 202 208 194 192 196 200 223 205 205 192 179 181 209 214 222 23 224 197 243 276 250 250 246 243 231 221 218
329 324 302 293 251 180 207 232 220 212 203 202 222 206 226 203 243 201 192 189 200 201 195 183 208 208 200 195 190 204 180 192 214 219 230 208 234 232 221 245 242 240 226 231 225
330 317 322 317 151 180 221 232 236 239 228 223 231 236 237 220 227 254 224 242 202 193 201 191 215 161 177 207 200 173 185 210 231 230 231 235 235 213 233 245 247 243 235 237 224
337 297 297 163 220 208 239 209 255 244 229 236 242 237 229 217 243 255 244 253 198 144 187 202 207 220 216 208 236 222 215 208 215 197 224 250 228 188 231 239 242 252 255 254 229
320 282 251 224 243 227 278 276 263 252 224 202 222 230 225 244 247 239 237 248 245 251 181 165 211 215 231 240 206 225 226 223 229 243 216 228 225 201 231 242 249 252 261 267 240
313 308 281 207 271 285 334 276 263 285 253 242 233 212 218 227 232 241 215 256 249 228 217 173 180 216 224 230 233 227 227 217 220 225 225 229 238 211 237 245 258 247 256 253 235
248 262 325 308 199 324 290 291 288 282 287 250 222 235 223 234 235 236 242 266 282 268 250 207 214 215 227 229 217 223 229 219 218 234 231 229 220 222 225 236 237 244 256 235 218
279 309 325 287 293 289 262 241 256 298 291 276 240 236 246 233 238 246 227 232 239 254 213 195 224 219 242 231 224 221 221 226 223 227 230 237 223 217 232 238 243 248 236 231 222
252 282 286 272 288 281 259 294 290 347 272 254 312 326 287 273 278 268 273 268 271 260 199 192 197 177 243 232 218 231 223 220 227 224 211 219 223 215 228 229 230 235 239 239 234